TimeCDT,TemperatureF,Dew PointF,Humidity,Sea Level PressureIn,VisibilityMPH,Wind Direction,Wind SpeedMPH,Gust SpeedMPH,PrecipitationIn,Events,Conditions,WindDirDegrees,DateUTC
12:53 AM,75.0,72.0,90,29.93,9.0,Calm,Calm,-,N/A,,Partly Cloudy,0,2013-09-03 05:53:00
1:53 AM,75.0,72.0,90,29.93,8.0,Calm,Calm,-,N/A,,Scattered Clouds,0,2013-09-03 06:53:00
2:53 AM,75.0,72.0,90,29.93,6.0,Calm,Calm,-,N/A,,Mostly Cloudy,0,2013-09-03 07:53:00
3:53 AM,75.0,72.0,90,29.93,5.0,North,4.6,-,N/A,,Mostly Cloudy,360,2013-09-03 08:53:00
4:24 AM,75.2,73.4,94,29.91,6.0,NNE,6.9,-,0.00,Rain-Thunderstorm,Light Rain,20,2013-09-03 09:24:00
4:53 AM,75.0,71.1,87,29.94,6.0,NW,17.3,26.5,0.05,Rain-Thunderstorm,Thunderstorms and Rain,310,2013-09-03 09:53:00
5:05 AM,73.4,71.6,94,29.94,1.5,West,19.6,26.5,0.20,Rain-Thunderstorm,Heavy Thunderstorms and Rain,280,2013-09-03 10:05:00
5:13 AM,73.4,71.6,94,29.95,0.8,WSW,9.2,26.5,0.52,Rain-Thunderstorm,Heavy Thunderstorms and Rain,250,2013-09-03 10:13:00
5:36 AM,73.4,71.6,94,29.94,2.0,East,6.9,-,1.08,Rain-Thunderstorm,Heavy Thunderstorms and Rain,100,2013-09-03 10:36:00
5:44 AM,73.4,71.6,94,29.95,4.0,ESE,9.2,-,1.10,Rain-Thunderstorm,Thunderstorms and Rain,110,2013-09-03 10:44:00
5:53 AM,73.0,71.1,93,29.97,6.0,ESE,5.8,-,1.11,Rain-Thunderstorm,Thunderstorms and Rain,120,2013-09-03 10:53:00
6:29 AM,73.4,71.6,94,29.95,6.0,ESE,8.1,-,0.05,Rain,Light Rain,110,2013-09-03 11:29:00
6:53 AM,73.0,71.1,93,29.97,10.0,Calm,Calm,-,0.05,Rain,Light Rain,0,2013-09-03 11:53:00
7:13 AM,73.4,71.6,94,29.95,6.0,ESE,3.5,-,0.07,Rain-Thunderstorm,Light Rain,110,2013-09-03 12:13:00
7:28 AM,73.4,71.6,94,29.96,8.0,Calm,Calm,-,0.08,Rain,Rain,0,2013-09-03 12:28:00
7:32 AM,73.4,71.6,94,29.97,2.5,Calm,Calm,-,0.12,Rain-Thunderstorm,Thunderstorms and Rain,0,2013-09-03 12:32:00
7:39 AM,73.4,71.6,94,29.96,1.0,SE,3.5,-,0.19,Rain-Thunderstorm,Thunderstorms and Rain,140,2013-09-03 12:39:00
7:50 AM,73.4,71.6,94,29.96,2.5,Variable,3.5,-,0.24,Rain,Light Rain,0,2013-09-03 12:50:00
7:53 AM,73.9,72.0,93,29.98,6.0,NNE,4.6,-,0.24,Rain,Light Rain,20,2013-09-03 12:53:00
8:53 AM,75.9,73.0,91,29.99,10.0,NE,4.6,-,0.00,,Mostly Cloudy,40,2013-09-03 13:53:00
9:53 AM,82.0,75.0,79,29.99,10.0,NE,4.6,-,N/A,,Clear,40,2013-09-03 14:53:00
10:53 AM,84.9,75.0,72,30.00,10.0,NE,5.8,-,N/A,,Clear,50,2013-09-03 15:53:00
11:53 AM,88.0,75.0,65,29.99,10.0,East,6.9,-,N/A,,Clear,90,2013-09-03 16:53:00
12:53 PM,89.1,75.0,63,29.98,10.0,ENE,6.9,-,N/A,,Partly Cloudy,60,2013-09-03 17:53:00
1:53 PM,90.0,73.0,57,29.97,10.0,Variable,4.6,-,N/A,,Scattered Clouds,0,2013-09-03 18:53:00
2:53 PM,91.9,71.1,50,29.94,10.0,North,8.1,-,N/A,,Scattered Clouds,10,2013-09-03 19:53:00
3:53 PM,91.9,71.1,50,29.91,10.0,NE,6.9,-,N/A,,Clear,50,2013-09-03 20:53:00
4:53 PM,91.0,70.0,50,29.91,10.0,NE,9.2,-,N/A,,Clear,50,2013-09-03 21:53:00
5:53 PM,89.1,68.0,50,29.93,10.0,NNE,10.4,-,N/A,,Clear,30,2013-09-03 22:53:00
6:53 PM,84.9,69.1,59,29.93,10.0,NNE,10.4,-,N/A,,Clear,30,2013-09-03 23:53:00
7:53 PM,79.0,70.0,74,29.96,10.0,NE,5.8,-,N/A,,Clear,40,2013-09-04 00:53:00
8:53 PM,78.1,68.0,71,29.98,10.0,NE,8.1,-,N/A,,Clear,40,2013-09-04 01:53:00
9:53 PM,75.9,66.0,71,30.02,10.0,NE,5.8,-,N/A,,Clear,50,2013-09-04 02:53:00
10:53 PM,73.9,66.0,76,30.02,10.0,NE,6.9,-,N/A,,Clear,40,2013-09-04 03:53:00
11:53 PM,72.0,64.0,76,30.01,10.0,NNE,6.9,-,N/A,,Clear,30,2013-09-04 04:53:00